Time,TemperatureF,DewpointF,PressureIn,WindDirection,WindDirectionDegrees,WindSpeedMPH,WindSpeedGustMPH,Humidity,HourlyPrecipIn,Conditions,Clouds,dailyrainin,SoftwareType,DateUTC
2013-03-13 00:00:00,36.3,34.5,29.79,SE,132,2.0,4.0,93,0.00,,,0.03,meteohub,2013-03-13 04:00:00,
2013-03-13 00:01:00,36.3,34.5,29.79,NNW,328,6.0,6.0,93,0.00,,,0.03,meteohub,2013-03-13 04:01:00,
2013-03-13 00:02:00,36.3,34.5,29.79,NW,326,3.0,4.0,93,0.00,,,0.03,meteohub,2013-03-13 04:02:00,
2013-03-13 00:07:00,36.1,34.3,29.79,ESE,116,1.0,6.0,93,0.00,,,0.03,meteohub,2013-03-13 04:07:00,
2013-03-13 00:08:00,36.1,34.3,29.79,WSW,237,0.0,6.0,93,0.00,,,0.03,meteohub,2013-03-13 04:08:00,
2013-03-13 00:14:00,36.1,34.3,29.79,ESE,122,0.0,6.0,93,0.00,,,0.03,meteohub,2013-03-13 04:14:00,
2013-03-13 00:19:00,36.1,34.3,29.79,NNW,340,3.0,6.0,93,0.00,,,0.03,meteohub,2013-03-13 04:19:00,
2013-03-13 00:24:00,36.1,34.3,29.78,SE,134,5.0,6.0,93,0.00,,,0.03,meteohub,2013-03-13 04:24:00,
2013-03-13 00:29:00,36.1,34.0,29.78,NNE,27,4.0,6.0,92,0.00,,,0.03,meteohub,2013-03-13 04:29:00,
2013-03-13 00:34:00,36.1,33.8,29.78,NW,317,3.0,6.0,91,0.00,,,0.03,meteohub,2013-03-13 04:34:00,
2013-03-13 00:39:00,36.0,33.6,29.78,SSE,162,1.0,7.0,91,0.00,,,0.03,meteohub,2013-03-13 04:39:00,
2013-03-13 00:44:00,36.1,33.8,29.78,NW,326,8.0,8.0,91,0.00,,,0.03,meteohub,2013-03-13 04:44:00,
2013-03-13 00:50:00,36.0,33.6,29.78,NNE,27,2.0,10.0,91,0.00,,,0.03,meteohub,2013-03-13 04:50:00,
2013-03-13 00:55:00,36.0,33.3,29.78,North,1,7.0,10.0,90,0.00,,,0.03,meteohub,2013-03-13 04:55:00,
2013-03-13 01:00:00,36.0,33.3,29.78,North,355,5.0,10.0,90,0.00,,,0.03,meteohub,2013-03-13 05:00:00,
2013-03-13 01:05:00,36.0,33.3,29.78,NNW,335,5.0,10.0,90,0.00,,,0.03,meteohub,2013-03-13 05:05:00,
2013-03-13 01:10:00,35.8,33.1,29.79,NNW,336,6.0,10.0,90,0.00,,,0.03,meteohub,2013-03-13 05:10:00,
2013-03-13 01:16:00,35.8,33.1,29.79,NW,322,4.0,10.0,90,0.00,,,0.03,meteohub,2013-03-13 05:16:00,
2013-03-13 01:21:00,35.8,33.1,29.78,NNW,327,8.0,10.0,90,0.00,,,0.03,meteohub,2013-03-13 05:21:00,
2013-03-13 01:26:00,35.6,33.3,29.79,NNW,344,5.0,14.0,91,0.00,,,0.03,meteohub,2013-03-13 05:26:00,
2013-03-13 01:31:00,35.4,33.1,29.79,NNW,347,4.0,14.0,91,0.00,,,0.03,meteohub,2013-03-13 05:31:00,
2013-03-13 01:37:00,35.8,33.1,29.79,WNW,303,5.0,12.0,90,0.00,,,0.03,meteohub,2013-03-13 05:37:00,
2013-03-13 01:42:00,35.8,33.1,29.79,NNW,340,4.0,13.0,90,0.00,,,0.03,meteohub,2013-03-13 05:42:00,
2013-03-13 01:47:00,35.8,33.1,29.79,NW,320,3.0,13.0,90,0.00,,,0.03,meteohub,2013-03-13 05:47:00,
2013-03-13 01:52:00,35.8,32.9,29.79,NW,311,1.0,8.0,89,0.00,,,0.03,meteohub,2013-03-13 05:52:00,
2013-03-13 01:57:00,35.8,32.9,29.79,NNW,340,0.0,8.0,89,0.00,,,0.03,meteohub,2013-03-13 05:57:00,
2013-03-13 02:02:00,35.8,32.9,29.80,North,5,1.0,7.0,89,0.00,,,0.03,meteohub,2013-03-13 06:02:00,
2013-03-13 02:07:00,35.8,32.9,29.79,NNW,340,2.0,5.0,89,0.00,,,0.03,meteohub,2013-03-13 06:07:00,
2013-03-13 02:12:00,35.8,32.9,29.79,North,349,0.0,5.0,89,0.00,,,0.03,meteohub,2013-03-13 06:12:00,
2013-03-13 02:18:00,35.4,32.5,29.79,NNW,346,0.0,4.0,89,0.00,,,0.03,meteohub,2013-03-13 06:18:00,
2013-03-13 02:23:00,35.4,32.5,29.79,NNW,347,1.0,6.0,89,0.00,,,0.03,meteohub,2013-03-13 06:23:00,
2013-03-13 02:28:00,35.4,32.5,29.78,NNW,328,4.0,6.0,89,0.00,,,0.03,meteohub,2013-03-13 06:28:00,
2013-03-13 02:34:00,35.4,32.2,29.78,NW,326,4.0,6.0,88,0.00,,,0.03,meteohub,2013-03-13 06:34:00,
2013-03-13 02:39:00,35.4,32.2,29.78,SSE,166,1.0,7.0,88,0.00,,,0.03,meteohub,2013-03-13 06:39:00,
2013-03-13 02:44:00,35.4,32.2,29.78,NW,325,0.0,7.0,88,0.00,,,0.03,meteohub,2013-03-13 06:44:00,
2013-03-13 02:49:00,35.4,32.2,29.78,NNW,336,2.0,7.0,88,0.00,,,0.03,meteohub,2013-03-13 06:49:00,
2013-03-13 02:54:00,35.2,32.0,29.78,SE,131,2.0,8.0,88,0.00,,,0.03,meteohub,2013-03-13 06:54:00,
2013-03-13 02:59:00,35.2,32.0,29.79,NNW,338,2.0,8.0,88,0.00,,,0.03,meteohub,2013-03-13 06:59:00,
2013-03-13 03:04:00,35.2,32.0,29.78,NW,309,1.0,8.0,88,0.00,,,0.03,meteohub,2013-03-13 07:04:00,
2013-03-13 03:09:00,35.2,32.0,29.79,NNW,327,4.0,6.0,88,0.00,,,0.03,meteohub,2013-03-13 07:09:00,
2013-03-13 03:14:00,35.2,31.8,29.78,NNW,336,0.0,7.0,87,0.00,,,0.03,meteohub,2013-03-13 07:14:00,
2013-03-13 03:20:00,35.2,31.8,29.78,South,172,1.0,7.0,87,0.00,,,0.03,meteohub,2013-03-13 07:20:00,
2013-03-13 03:25:00,35.2,31.8,29.78,North,8,6.0,7.0,87,0.00,,,0.03,meteohub,2013-03-13 07:25:00,
2013-03-13 03:30:00,35.2,31.8,29.78,NW,325,4.0,6.0,87,0.00,,,0.03,meteohub,2013-03-13 07:30:00,
2013-03-13 03:35:00,35.1,31.6,29.78,NNW,337,4.0,8.0,87,0.00,,,0.03,meteohub,2013-03-13 07:35:00,
2013-03-13 03:40:00,35.2,31.5,29.78,ENE,65,0.0,8.0,86,0.00,,,0.03,meteohub,2013-03-13 07:40:00,
2013-03-13 03:45:00,35.1,31.6,29.78,NNW,340,3.0,8.0,87,0.00,,,0.03,meteohub,2013-03-13 07:45:00,
2013-03-13 03:50:00,35.2,31.5,29.78,South,180,2.0,7.0,86,0.00,,,0.03,meteohub,2013-03-13 07:50:00,
2013-03-13 03:55:00,35.2,31.5,29.78,SSE,152,0.0,6.0,86,0.00,,,0.03,meteohub,2013-03-13 07:55:00,
2013-03-13 04:00:00,35.2,31.5,29.78,NW,317,1.0,7.0,86,0.00,,,0.03,meteohub,2013-03-13 08:00:00,
2013-03-13 04:08:00,35.2,31.5,29.78,North,349,3.0,7.0,86,0.00,,,0.03,meteohub,2013-03-13 08:08:00,
2013-03-13 04:13:00,35.2,31.1,29.78,NNW,344,2.0,8.0,85,0.00,,,0.03,meteohub,2013-03-13 08:13:00,
2013-03-13 04:19:00,35.4,31.3,29.78,NNW,336,6.0,8.0,85,0.00,,,0.03,meteohub,2013-03-13 08:19:00,
2013-03-13 04:24:00,35.2,31.1,29.78,North,351,4.0,6.0,85,0.00,,,0.03,meteohub,2013-03-13 08:24:00,
2013-03-13 04:29:00,35.4,31.3,29.78,North,355,2.0,6.0,85,0.00,,,0.03,meteohub,2013-03-13 08:29:00,
2013-03-13 04:34:00,35.2,31.1,29.78,NNW,343,5.0,7.0,85,0.00,,,0.03,meteohub,2013-03-13 08:34:00,
2013-03-13 04:39:00,35.2,31.1,29.79,NNW,333,3.0,7.0,85,0.00,,,0.03,meteohub,2013-03-13 08:39:00,
2013-03-13 04:44:00,35.2,31.1,29.79,NNW,347,2.0,7.0,85,0.00,,,0.03,meteohub,2013-03-13 08:44:00,
2013-03-13 04:49:00,35.2,31.1,29.78,North,349,3.0,7.0,85,0.00,,,0.03,meteohub,2013-03-13 08:49:00,
2013-03-13 04:55:00,35.2,31.1,29.79,NNW,336,4.0,7.0,85,0.00,,,0.03,meteohub,2013-03-13 08:55:00,
2013-03-13 05:00:00,35.4,31.3,29.79,North,353,2.0,9.0,85,0.00,,,0.03,meteohub,2013-03-13 09:00:00,
2013-03-13 05:05:00,35.2,31.1,29.79,North,350,3.0,9.0,85,0.00,,,0.03,meteohub,2013-03-13 09:05:00,
2013-03-13 05:10:00,35.2,31.1,29.79,North,349,3.0,9.0,85,0.00,,,0.03,meteohub,2013-03-13 09:10:00,
2013-03-13 05:16:00,35.2,31.1,29.79,NNW,335,3.0,6.0,85,0.00,,,0.03,meteohub,2013-03-13 09:16:00,
2013-03-13 05:21:00,35.2,31.1,29.79,NNE,18,4.0,6.0,85,0.00,,,0.03,meteohub,2013-03-13 09:21:00,
2013-03-13 05:26:00,35.2,31.1,29.79,NNW,341,0.0,8.0,85,0.00,,,0.03,meteohub,2013-03-13 09:26:00,
2013-03-13 05:31:00,35.2,31.1,29.79,NNW,336,2.0,8.0,85,0.00,,,0.03,meteohub,2013-03-13 09:31:00,
2013-03-13 05:37:00,35.1,31.3,29.79,NNW,328,2.0,8.0,86,0.00,,,0.03,meteohub,2013-03-13 09:37:00,
2013-03-13 05:42:00,35.1,30.9,29.80,NNW,334,4.0,6.0,85,0.00,,,0.03,meteohub,2013-03-13 09:42:00,
2013-03-13 05:47:00,35.2,31.1,29.80,NW,305,3.0,6.0,85,0.00,,,0.03,meteohub,2013-03-13 09:47:00,
2013-03-13 05:52:00,35.2,31.1,29.80,NNW,348,2.0,6.0,85,0.00,,,0.03,meteohub,2013-03-13 09:52:00,
2013-03-13 05:57:00,35.2,31.1,29.79,NNW,345,0.0,6.0,85,0.00,,,0.03,meteohub,2013-03-13 09:57:00,
2013-03-13 06:02:00,35.2,31.1,29.80,NNW,347,3.0,6.0,85,0.00,,,0.03,meteohub,2013-03-13 10:02:00,
2013-03-13 06:07:00,35.2,31.1,29.80,NNW,347,3.0,6.0,85,0.00,,,0.03,meteohub,2013-03-13 10:07:00,
2013-03-13 06:12:00,35.1,30.9,29.80,NNW,327,2.0,6.0,85,0.00,,,0.03,meteohub,2013-03-13 10:12:00,
2013-03-13 06:17:00,35.1,30.9,29.80,NW,307,0.0,5.0,85,0.00,,,0.03,meteohub,2013-03-13 10:17:00,
2013-03-13 06:22:00,35.1,30.9,29.79,NNW,336,0.0,3.0,85,0.00,,,0.03,meteohub,2013-03-13 10:22:00,
2013-03-13 06:27:00,34.9,31.5,29.79,NNW,335,2.0,4.0,87,0.00,,,0.03,meteohub,2013-03-13 10:27:00,
2013-03-13 06:32:00,34.9,31.1,29.79,North,355,1.0,4.0,86,0.00,,,0.03,meteohub,2013-03-13 10:32:00,
2013-03-13 06:37:00,34.7,31.3,29.79,North,352,1.0,4.0,87,0.00,,,0.03,meteohub,2013-03-13 10:37:00,
2013-03-13 06:42:00,34.5,31.3,29.79,NNW,344,1.0,4.0,88,0.00,,,0.03,meteohub,2013-03-13 10:42:00,
2013-03-13 06:47:00,34.3,31.1,29.79,NW,321,1.0,2.0,88,0.00,,,0.03,meteohub,2013-03-13 10:47:00,
2013-03-13 06:52:00,34.2,31.3,29.79,WNW,292,2.0,4.0,89,0.00,,,0.03,meteohub,2013-03-13 10:52:00,
2013-03-13 06:58:00,34.2,30.9,29.79,NNW,336,2.0,4.0,88,0.00,,,0.03,meteohub,2013-03-13 10:58:00,
2013-03-13 07:03:00,34.2,30.9,29.79,NNW,337,2.0,5.0,88,0.00,,,0.03,meteohub,2013-03-13 11:03:00,
2013-03-13 07:08:00,34.3,31.1,29.79,WNW,299,3.0,5.0,88,0.00,,,0.03,meteohub,2013-03-13 11:08:00,
2013-03-13 07:13:00,34.5,31.3,29.79,NNW,345,2.0,4.0,88,0.00,,,0.03,meteohub,2013-03-13 11:13:00,
2013-03-13 07:18:00,34.5,31.3,29.79,NNW,328,0.0,4.0,88,0.00,,,0.03,meteohub,2013-03-13 11:18:00,
2013-03-13 07:23:00,34.7,31.3,29.80,North,352,2.0,4.0,87,0.00,,,0.03,meteohub,2013-03-13 11:23:00,
2013-03-13 07:28:00,34.9,31.5,29.79,North,351,2.0,6.0,87,0.00,,,0.03,meteohub,2013-03-13 11:28:00,
2013-03-13 07:33:00,34.9,31.5,29.79,NNW,333,2.0,6.0,87,0.00,,,0.03,meteohub,2013-03-13 11:33:00,
2013-03-13 07:39:00,34.9,31.5,29.79,North,1,1.0,6.0,87,0.00,,,0.03,meteohub,2013-03-13 11:39:00,
2013-03-13 07:44:00,34.9,31.5,29.79,NNE,27,1.0,5.0,87,0.00,,,0.03,meteohub,2013-03-13 11:44:00,
2013-03-13 07:49:00,34.9,31.1,29.79,NNW,343,1.0,5.0,86,0.00,,,0.03,meteohub,2013-03-13 11:49:00,
2013-03-13 07:54:00,35.1,31.3,29.78,NNW,347,0.0,5.0,86,0.00,,,0.03,meteohub,2013-03-13 11:54:00,
2013-03-13 07:59:00,35.1,31.6,29.78,North,7,0.0,5.0,87,0.00,,,0.03,meteohub,2013-03-13 11:59:00,
2013-03-13 08:04:00,35.1,31.3,29.78,NW,316,4.0,5.0,86,0.00,,,0.03,meteohub,2013-03-13 12:04:00,
2013-03-13 08:09:00,35.1,31.3,29.78,NNW,348,0.0,5.0,86,0.00,,,0.03,meteohub,2013-03-13 12:09:00,
2013-03-13 08:14:00,35.1,31.3,29.78,NW,319,2.0,5.0,86,0.00,,,0.03,meteohub,2013-03-13 12:14:00,
2013-03-13 08:19:00,35.2,31.5,29.78,North,349,1.0,5.0,86,0.00,,,0.03,meteohub,2013-03-13 12:19:00,
2013-03-13 08:25:00,35.2,31.5,29.78,North,355,2.0,4.0,86,0.00,,,0.03,meteohub,2013-03-13 12:25:00,
2013-03-13 08:30:00,35.2,31.5,29.78,North,355,2.0,4.0,86,0.00,,,0.03,meteohub,2013-03-13 12:30:00,
2013-03-13 08:35:00,35.2,31.5,29.78,NNW,335,2.0,4.0,86,0.00,,,0.03,meteohub,2013-03-13 12:35:00,
2013-03-13 08:40:00,35.2,31.5,29.78,NNW,332,2.0,4.0,86,0.00,,,0.03,meteohub,2013-03-13 12:40:00,
2013-03-13 08:45:00,35.4,31.6,29.78,NW,323,3.0,7.0,86,0.00,,,0.03,meteohub,2013-03-13 12:45:00,
2013-03-13 08:50:00,35.4,31.6,29.78,WNW,301,4.0,8.0,86,0.00,,,0.03,meteohub,2013-03-13 12:50:00,
2013-03-13 08:55:00,35.4,31.3,29.78,NNW,347,2.0,8.0,85,0.00,,,0.03,meteohub,2013-03-13 12:55:00,
2013-03-13 09:00:00,35.4,31.3,29.78,NNW,347,5.0,8.0,85,0.00,,,0.03,meteohub,2013-03-13 13:00:00,
2013-03-13 09:06:00,35.6,31.5,29.78,NW,320,3.0,8.0,85,0.00,,,0.03,meteohub,2013-03-13 13:06:00,
2013-03-13 09:11:00,35.6,31.5,29.78,NNW,346,3.0,8.0,85,0.00,,,0.03,meteohub,2013-03-13 13:11:00,
2013-03-13 09:16:00,35.8,31.5,29.78,NW,308,3.0,7.0,84,0.00,,,0.03,meteohub,2013-03-13 13:16:00,
2013-03-13 09:21:00,35.8,31.5,29.78,WNW,282,3.0,6.0,84,0.00,,,0.03,meteohub,2013-03-13 13:21:00,
2013-03-13 09:26:00,35.8,31.5,29.78,NNW,330,3.0,6.0,84,0.00,,,0.03,meteohub,2013-03-13 13:26:00,
2013-03-13 09:31:00,36.0,31.6,29.78,NNW,339,2.0,7.0,84,0.00,,,0.03,meteohub,2013-03-13 13:31:00,
2013-03-13 09:36:00,36.0,31.3,29.78,WSW,239,4.0,7.0,83,0.00,,,0.03,meteohub,2013-03-13 13:36:00,
2013-03-13 09:42:00,36.0,31.3,29.78,WNW,301,3.0,7.0,83,0.00,,,0.03,meteohub,2013-03-13 13:42:00,
2013-03-13 09:47:00,36.1,31.5,29.78,NNW,341,1.0,7.0,83,0.00,,,0.03,meteohub,2013-03-13 13:47:00,
2013-03-13 09:52:00,36.1,31.5,29.78,WNW,295,3.0,6.0,83,0.00,,,0.03,meteohub,2013-03-13 13:52:00,
2013-03-13 09:57:00,36.3,31.3,29.78,NNW,348,2.0,6.0,82,0.00,,,0.03,meteohub,2013-03-13 13:57:00,
2013-03-13 10:02:00,36.5,31.5,29.78,NNW,343,7.0,7.0,82,0.00,,,0.03,meteohub,2013-03-13 14:02:00,
2013-03-13 10:07:00,36.7,31.5,29.77,NW,312,5.0,9.0,81,0.00,,,0.03,meteohub,2013-03-13 14:07:00,
2013-03-13 10:12:00,36.7,31.1,29.78,WNW,295,5.0,9.0,80,0.00,,,0.03,meteohub,2013-03-13 14:12:00,
2013-03-13 10:17:00,36.9,31.3,29.77,NNW,337,9.0,10.0,80,0.00,,,0.03,meteohub,2013-03-13 14:17:00,
2013-03-13 10:22:00,36.9,30.9,29.77,North,351,5.0,10.0,79,0.00,,,0.03,meteohub,2013-03-13 14:22:00,
2013-03-13 10:27:00,37.0,31.1,29.77,NNW,332,2.0,10.0,79,0.00,,,0.03,meteohub,2013-03-13 14:27:00,
2013-03-13 10:32:00,37.4,30.9,29.77,NNW,348,4.0,10.0,77,0.00,,,0.03,meteohub,2013-03-13 14:32:00,
2013-03-13 10:37:00,37.8,30.9,29.76,NNW,344,4.0,10.0,76,0.00,,,0.03,meteohub,2013-03-13 14:37:00,
2013-03-13 10:42:00,37.8,30.9,29.77,West,269,6.0,9.0,76,0.00,,,0.03,meteohub,2013-03-13 14:42:00,
2013-03-13 10:47:00,37.6,30.0,29.77,NW,316,6.0,10.0,74,0.00,,,0.03,meteohub,2013-03-13 14:47:00,
2013-03-13 10:53:00,37.4,30.2,29.77,NE,37,6.0,10.0,75,0.00,,,0.03,meteohub,2013-03-13 14:53:00,
2013-03-13 10:58:00,37.0,29.8,29.77,North,349,3.0,10.0,75,0.00,,,0.03,meteohub,2013-03-13 14:58:00,
2013-03-13 11:03:00,37.0,30.6,29.76,NNW,336,4.0,10.0,77,0.00,,,0.03,meteohub,2013-03-13 15:03:00,
2013-03-13 11:08:00,37.2,30.4,29.77,North,350,4.0,10.0,76,0.00,,,0.03,meteohub,2013-03-13 15:08:00,
2013-03-13 11:14:00,37.2,30.4,29.77,NW,322,3.0,10.0,76,0.00,,,0.03,meteohub,2013-03-13 15:14:00,
2013-03-13 11:19:00,37.2,30.4,29.77,North,356,4.0,7.0,76,0.00,,,0.03,meteohub,2013-03-13 15:19:00,
2013-03-13 11:24:00,37.2,30.7,29.77,NNW,341,1.0,6.0,77,0.00,,,0.03,meteohub,2013-03-13 15:24:00,
2013-03-13 11:29:00,37.0,30.6,29.77,NNW,339,1.0,6.0,77,0.00,,,0.03,meteohub,2013-03-13 15:29:00,
2013-03-13 11:34:00,37.0,30.7,29.77,North,351,2.0,5.0,78,0.00,,,0.03,meteohub,2013-03-13 15:34:00,
2013-03-13 11:39:00,36.9,30.4,29.77,North,350,0.0,6.0,77,0.00,,,0.03,meteohub,2013-03-13 15:39:00,
2013-03-13 11:44:00,36.9,30.6,29.77,NNW,331,3.0,6.0,78,0.00,,,0.03,meteohub,2013-03-13 15:44:00,
2013-03-13 11:49:00,37.0,30.6,29.77,NW,322,4.0,6.0,77,0.00,,,0.03,meteohub,2013-03-13 15:49:00,
2013-03-13 11:54:00,37.0,29.8,29.77,NW,311,5.0,5.0,75,0.00,,,0.03,meteohub,2013-03-13 15:54:00,
2013-03-13 12:00:00,37.2,30.0,29.77,North,0,1.0,6.0,75,0.00,,,0.03,meteohub,2013-03-13 16:00:00,
2013-03-13 12:05:00,37.2,30.0,29.77,NNW,331,0.0,9.0,75,0.00,,,0.03,meteohub,2013-03-13 16:05:00,
2013-03-13 12:10:00,37.2,30.0,29.77,North,356,1.0,9.0,75,0.00,,,0.03,meteohub,2013-03-13 16:10:00,
2013-03-13 12:15:00,37.2,30.0,29.77,NW,315,2.0,9.0,75,0.00,,,0.03,meteohub,2013-03-13 16:15:00,
2013-03-13 12:20:00,37.2,30.4,29.78,NNW,347,0.0,6.0,76,0.00,,,0.03,meteohub,2013-03-13 16:20:00,
2013-03-13 12:26:00,37.0,30.2,29.78,NW,324,2.0,6.0,76,0.00,,,0.03,meteohub,2013-03-13 16:26:00,
2013-03-13 12:31:00,37.0,29.5,29.78,WNW,292,2.0,5.0,74,0.00,,,0.03,meteohub,2013-03-13 16:31:00,
2013-03-13 12:36:00,36.9,29.3,29.78,SSE,158,1.0,5.0,74,0.00,,,0.03,meteohub,2013-03-13 16:36:00,
2013-03-13 12:41:00,37.0,29.5,29.78,SE,126,0.0,5.0,74,0.00,,,0.03,meteohub,2013-03-13 16:41:00,
2013-03-13 12:46:00,37.2,29.1,29.78,ESE,116,0.0,4.0,72,0.00,,,0.03,meteohub,2013-03-13 16:46:00,
2013-03-13 12:51:00,37.6,30.0,29.78,North,355,0.0,4.0,74,0.00,,,0.03,meteohub,2013-03-13 16:51:00,
2013-03-13 12:56:00,37.9,29.3,29.77,NNW,338,0.0,4.0,71,0.00,,,0.03,meteohub,2013-03-13 16:56:00,
2013-03-13 13:01:00,37.9,30.0,29.76,NNW,341,1.0,4.0,73,0.00,,,0.03,meteohub,2013-03-13 17:01:00,
2013-03-13 13:06:00,38.3,30.0,29.76,NW,313,0.0,4.0,72,0.00,,,0.03,meteohub,2013-03-13 17:06:00,
2013-03-13 13:12:00,38.7,28.9,29.75,North,351,3.0,4.0,68,0.00,,,0.03,meteohub,2013-03-13 17:12:00,
2013-03-13 13:17:00,39.2,29.5,29.75,NNW,336,2.0,4.0,68,0.00,,,0.03,meteohub,2013-03-13 17:17:00,
2013-03-13 13:22:00,39.6,28.0,29.75,NNW,334,1.0,4.0,63,0.00,,,0.03,meteohub,2013-03-13 17:22:00,
2013-03-13 13:27:00,39.0,27.5,29.75,NNW,344,5.0,7.0,63,0.00,,,0.03,meteohub,2013-03-13 17:27:00,
2013-03-13 13:32:00,38.8,27.7,29.75,NW,320,4.0,11.0,64,0.00,,,0.03,meteohub,2013-03-13 17:32:00,
2013-03-13 13:37:00,38.8,27.7,29.75,NW,305,1.0,11.0,64,0.00,,,0.03,meteohub,2013-03-13 17:37:00,
2013-03-13 13:42:00,38.8,27.7,29.75,WNW,297,1.0,11.0,64,0.00,,,0.03,meteohub,2013-03-13 17:42:00,
2013-03-13 13:47:00,38.8,27.3,29.75,NW,324,1.0,10.0,63,0.00,,,0.03,meteohub,2013-03-13 17:47:00,
2013-03-13 13:52:00,38.8,27.3,29.75,NNW,345,5.0,7.0,63,0.00,,,0.03,meteohub,2013-03-13 17:52:00,
2013-03-13 13:57:00,38.5,27.3,29.75,NNW,338,4.0,12.0,64,0.00,,,0.03,meteohub,2013-03-13 17:57:00,
2013-03-13 14:03:00,38.7,27.9,29.75,NNW,343,3.0,12.0,65,0.00,,,0.03,meteohub,2013-03-13 18:03:00,
2013-03-13 14:08:00,38.7,27.1,29.75,WNW,301,2.0,12.0,63,0.00,,,0.03,meteohub,2013-03-13 18:08:00,
2013-03-13 14:13:00,38.8,26.6,29.75,NNW,343,4.0,8.0,61,0.00,,,0.03,meteohub,2013-03-13 18:13:00,
2013-03-13 14:18:00,39.0,27.1,29.74,North,354,1.0,7.0,62,0.00,,,0.03,meteohub,2013-03-13 18:18:00,
2013-03-13 14:23:00,39.4,26.6,29.74,North,355,3.0,7.0,60,0.00,,,0.03,meteohub,2013-03-13 18:23:00,
2013-03-13 14:28:00,39.2,26.1,29.74,West,276,0.0,13.0,59,0.00,,,0.03,meteohub,2013-03-13 18:28:00,
2013-03-13 14:33:00,39.7,26.2,29.73,WNW,299,3.0,13.0,58,0.00,,,0.03,meteohub,2013-03-13 18:33:00,
2013-03-13 14:38:00,39.7,26.2,29.73,NW,321,5.0,13.0,58,0.00,,,0.03,meteohub,2013-03-13 18:38:00,
2013-03-13 14:43:00,39.6,25.5,29.73,NNW,345,3.0,11.0,57,0.00,,,0.03,meteohub,2013-03-13 18:43:00,
2013-03-13 14:48:00,39.4,27.1,29.73,North,5,3.0,11.0,61,0.00,,,0.03,meteohub,2013-03-13 18:48:00,
2013-03-13 14:53:00,39.0,27.5,29.73,NW,313,1.0,11.0,63,0.00,,,0.03,meteohub,2013-03-13 18:53:00,
2013-03-13 14:58:00,38.8,27.7,29.73,NNW,327,4.0,9.0,64,0.00,,,0.03,meteohub,2013-03-13 18:58:00,
2013-03-13 15:03:00,38.8,27.0,29.73,NW,312,5.0,8.0,62,0.00,,,0.03,meteohub,2013-03-13 19:03:00,
2013-03-13 15:09:00,38.8,27.3,29.73,NW,318,3.0,8.0,63,0.00,,,0.03,meteohub,2013-03-13 19:09:00,
2013-03-13 15:14:00,38.8,27.3,29.73,NW,318,2.0,8.0,63,0.00,,,0.03,meteohub,2013-03-13 19:14:00,
2013-03-13 15:19:00,38.8,27.7,29.73,WNW,297,4.0,8.0,64,0.00,,,0.03,meteohub,2013-03-13 19:19:00,
2013-03-13 15:24:00,39.0,27.9,29.73,WNW,293,0.0,8.0,64,0.00,,,0.03,meteohub,2013-03-13 19:24:00,
2013-03-13 15:29:00,39.6,27.7,29.73,NW,308,6.0,8.0,62,0.00,,,0.03,meteohub,2013-03-13 19:29:00,
2013-03-13 15:34:00,39.6,27.7,29.73,North,355,1.0,7.0,62,0.00,,,0.03,meteohub,2013-03-13 19:34:00,
2013-03-13 15:40:00,39.6,27.7,29.73,North,11,3.0,13.0,62,0.00,,,0.03,meteohub,2013-03-13 19:40:00,
2013-03-13 15:45:00,39.4,26.6,29.73,NNW,338,5.0,13.0,60,0.00,,,0.03,meteohub,2013-03-13 19:45:00,
2013-03-13 15:50:00,39.4,27.5,29.73,NNW,347,3.0,11.0,62,0.00,,,0.03,meteohub,2013-03-13 19:50:00,
2013-03-13 15:55:00,39.6,27.1,29.73,North,357,2.0,11.0,61,0.00,,,0.03,meteohub,2013-03-13 19:55:00,
2013-03-13 16:00:00,39.9,27.1,29.73,NE,41,0.0,11.0,60,0.00,,,0.03,meteohub,2013-03-13 20:00:00,
2013-03-13 16:05:00,40.6,27.0,29.73,North,5,4.0,7.0,58,0.00,,,0.03,meteohub,2013-03-13 20:05:00,
2013-03-13 16:10:00,40.5,26.4,29.73,NNW,343,5.0,7.0,57,0.00,,,0.03,meteohub,2013-03-13 20:10:00,
2013-03-13 16:16:00,40.5,25.2,29.73,North,352,6.0,9.0,54,0.00,,,0.03,meteohub,2013-03-13 20:16:00,
2013-03-13 16:21:00,40.6,24.8,29.73,NW,316,1.0,17.0,53,0.00,,,0.03,meteohub,2013-03-13 20:21:00,
2013-03-13 16:26:00,40.6,26.6,29.73,NNW,334,2.0,17.0,57,0.00,,,0.03,meteohub,2013-03-13 20:26:00,
2013-03-13 16:31:00,39.7,26.6,29.73,North,352,4.0,17.0,59,0.00,,,0.03,meteohub,2013-03-13 20:31:00,
2013-03-13 16:36:00,39.6,26.4,29.73,NNW,338,4.0,12.0,59,0.00,,,0.03,meteohub,2013-03-13 20:36:00,
2013-03-13 16:41:00,39.4,26.6,29.73,North,355,2.0,12.0,60,0.00,,,0.03,meteohub,2013-03-13 20:41:00,
2013-03-13 16:46:00,39.0,26.8,29.73,NNW,347,1.0,7.0,61,0.00,,,0.03,meteohub,2013-03-13 20:46:00,
2013-03-13 16:52:00,38.8,26.6,29.73,North,357,3.0,6.0,61,0.00,,,0.03,meteohub,2013-03-13 20:52:00,
2013-03-13 16:57:00,38.8,26.1,29.73,WNW,302,1.0,6.0,60,0.00,,,0.03,meteohub,2013-03-13 20:57:00,
2013-03-13 17:02:00,39.0,26.8,29.73,North,354,0.0,5.0,61,0.00,,,0.03,meteohub,2013-03-13 21:02:00,
2013-03-13 17:07:00,38.8,26.6,29.73,NNW,338,1.0,5.0,61,0.00,,,0.03,meteohub,2013-03-13 21:07:00,
2013-03-13 17:12:00,38.7,27.1,29.73,NNW,341,2.0,5.0,63,0.00,,,0.03,meteohub,2013-03-13 21:12:00,
2013-03-13 17:17:00,38.7,26.8,29.73,NNW,329,5.0,6.0,62,0.00,,,0.03,meteohub,2013-03-13 21:17:00,
2013-03-13 17:22:00,38.7,26.4,29.74,NNW,336,6.0,6.0,61,0.00,,,0.03,meteohub,2013-03-13 21:22:00,
2013-03-13 17:27:00,38.7,26.1,29.74,NNW,330,1.0,10.0,60,0.00,,,0.03,meteohub,2013-03-13 21:27:00,
2013-03-13 17:32:00,38.7,26.4,29.74,WNW,291,0.0,10.0,61,0.00,,,0.03,meteohub,2013-03-13 21:32:00,
2013-03-13 17:37:00,38.7,26.1,29.74,North,357,1.0,10.0,60,0.00,,,0.03,meteohub,2013-03-13 21:37:00,
2013-03-13 17:43:00,38.7,26.1,29.73,NW,323,1.0,6.0,60,0.00,,,0.03,meteohub,2013-03-13 21:43:00,
2013-03-13 17:48:00,38.7,26.1,29.73,North,8,3.0,6.0,60,0.00,,,0.03,meteohub,2013-03-13 21:48:00,
2013-03-13 17:53:00,38.7,26.8,29.73,NNW,341,2.0,6.0,62,0.00,,,0.03,meteohub,2013-03-13 21:53:00,
2013-03-13 17:58:00,38.5,26.6,29.73,NNW,347,1.0,5.0,62,0.00,,,0.03,meteohub,2013-03-13 21:58:00,
2013-03-13 18:03:00,38.3,26.8,29.73,WNW,302,1.0,5.0,63,0.00,,,0.03,meteohub,2013-03-13 22:03:00,
2013-03-13 18:08:00,38.3,26.1,29.74,NW,305,2.0,4.0,61,0.00,,,0.03,meteohub,2013-03-13 22:08:00,
2013-03-13 18:13:00,38.5,26.6,29.74,NNW,330,0.0,5.0,62,0.00,,,0.03,meteohub,2013-03-13 22:13:00,
2013-03-13 18:19:00,38.3,26.4,29.74,NW,318,2.0,5.0,62,0.00,,,0.03,meteohub,2013-03-13 22:19:00,
2013-03-13 18:24:00,38.1,25.5,29.74,NW,317,0.0,4.0,60,0.00,,,0.03,meteohub,2013-03-13 22:24:00,
2013-03-13 18:29:00,37.9,26.4,29.74,NNW,330,5.0,5.0,63,0.00,,,0.03,meteohub,2013-03-13 22:29:00,
2013-03-13 18:34:00,37.9,25.3,29.74,NNW,331,0.0,4.0,60,0.00,,,0.03,meteohub,2013-03-13 22:34:00,
2013-03-13 18:39:00,37.9,26.1,29.74,North,359,1.0,8.0,62,0.00,,,0.03,meteohub,2013-03-13 22:39:00,
2013-03-13 18:44:00,37.6,25.7,29.74,North,350,1.0,8.0,62,0.00,,,0.03,meteohub,2013-03-13 22:44:00,
2013-03-13 18:50:00,37.2,26.2,29.74,WNW,302,0.0,9.0,64,0.00,,,0.03,meteohub,2013-03-13 22:50:00,
2013-03-13 18:55:00,37.0,27.1,29.75,WNW,296,1.0,9.0,67,0.00,,,0.03,meteohub,2013-03-13 22:55:00,
2013-03-13 19:00:00,36.5,27.7,29.75,WNW,296,0.0,9.0,70,0.00,,,0.03,meteohub,2013-03-13 23:00:00,
2013-03-13 19:05:00,36.1,27.3,29.75,NW,307,1.0,2.0,70,0.00,,,0.03,meteohub,2013-03-13 23:05:00,
2013-03-13 19:10:00,35.8,27.3,29.75,NW,307,0.0,1.0,71,0.00,,,0.03,meteohub,2013-03-13 23:10:00,
2013-03-13 19:15:00,35.2,27.1,29.75,NW,307,0.0,2.0,72,0.00,,,0.03,meteohub,2013-03-13 23:15:00,
2013-03-13 19:20:00,34.9,26.8,29.75,NW,307,0.0,2.0,72,0.00,,,0.03,meteohub,2013-03-13 23:20:00,
2013-03-13 19:25:00,34.3,27.0,29.75,NW,307,0.0,2.0,74,0.00,,,0.03,meteohub,2013-03-13 23:25:00,
2013-03-13 19:30:00,34.0,26.2,29.75,NW,307,0.0,2.0,73,0.00,,,0.03,meteohub,2013-03-13 23:30:00,
2013-03-13 19:35:00,33.4,27.0,29.75,NW,307,0.0,1.0,77,0.00,,,0.03,meteohub,2013-03-13 23:35:00,
2013-03-13 19:40:00,33.1,27.0,29.75,NW,307,0.0,1.0,78,0.00,,,0.03,meteohub,2013-03-13 23:40:00,
2013-03-13 19:46:00,32.7,27.0,29.75,NW,307,0.0,1.0,79,0.00,,,0.03,meteohub,2013-03-13 23:46:00,
2013-03-13 19:51:00,32.4,27.0,29.75,NW,307,0.0,1.0,80,0.00,,,0.03,meteohub,2013-03-13 23:51:00,
2013-03-13 19:56:00,32.0,26.2,29.75,NW,307,0.0,0.0,79,0.00,,,0.03,meteohub,2013-03-13 23:56:00,
2013-03-13 20:01:00,31.6,25.9,29.75,NW,307,0.0,0.0,79,0.00,,,0.03,meteohub,2013-03-14 00:01:00,
2013-03-13 20:07:00,31.5,26.1,29.75,NW,307,0.0,0.0,80,0.00,,,0.00,meteohub,2013-03-14 00:07:00,
2013-03-13 20:12:00,30.9,25.2,29.75,NW,307,0.0,0.0,79,0.00,,,0.00,meteohub,2013-03-14 00:12:00,
2013-03-13 20:17:00,30.7,25.0,29.75,NW,307,0.0,0.0,79,0.00,,,0.00,meteohub,2013-03-14 00:17:00,
2013-03-13 20:22:00,30.6,25.2,29.75,NW,307,0.0,0.0,80,0.00,,,0.00,meteohub,2013-03-14 00:22:00,
2013-03-13 20:27:00,30.4,25.3,29.76,NW,307,0.0,0.0,81,0.00,,,0.00,meteohub,2013-03-14 00:27:00,
2013-03-13 20:32:00,30.2,25.2,29.76,NW,307,0.0,0.0,81,0.00,,,0.00,meteohub,2013-03-14 00:32:00,
2013-03-13 20:37:00,30.0,25.0,29.75,NW,307,0.0,0.0,81,0.00,,,0.00,meteohub,2013-03-14 00:37:00,
2013-03-13 20:42:00,29.8,25.0,29.76,NW,307,0.0,0.0,82,0.00,,,0.00,meteohub,2013-03-14 00:42:00,
2013-03-13 20:47:00,29.8,25.0,29.76,NW,307,0.0,0.0,82,0.00,,,0.00,meteohub,2013-03-14 00:47:00,
2013-03-13 20:52:00,29.7,25.2,29.75,NW,307,0.0,0.0,83,0.00,,,0.00,meteohub,2013-03-14 00:52:00,
2013-03-13 20:57:00,29.7,25.2,29.76,NW,307,0.0,0.0,83,0.00,,,0.00,meteohub,2013-03-14 00:57:00,
2013-03-13 21:03:00,29.5,25.0,29.76,NW,307,0.0,0.0,83,0.00,,,0.00,meteohub,2013-03-14 01:03:00,
2013-03-13 21:08:00,29.3,24.8,29.76,NW,307,0.0,0.0,83,0.00,,,0.00,meteohub,2013-03-14 01:08:00,
2013-03-13 21:13:00,29.1,25.0,29.77,NW,307,0.0,0.0,84,0.00,,,0.00,meteohub,2013-03-14 01:13:00,
2013-03-13 21:18:00,29.1,25.0,29.77,NW,307,0.0,0.0,84,0.00,,,0.00,meteohub,2013-03-14 01:18:00,
2013-03-13 21:24:00,28.9,25.0,29.77,NW,307,0.0,0.0,85,0.00,,,0.00,meteohub,2013-03-14 01:24:00,
2013-03-13 21:29:00,28.9,25.0,29.77,NW,307,0.0,0.0,85,0.00,,,0.00,meteohub,2013-03-14 01:29:00,
2013-03-13 21:34:00,28.8,24.8,29.78,NW,307,0.0,0.0,85,0.00,,,0.00,meteohub,2013-03-14 01:34:00,
2013-03-13 21:39:00,28.8,24.8,29.78,NW,307,0.0,0.0,85,0.00,,,0.00,meteohub,2013-03-14 01:39:00,
2013-03-13 21:44:00,28.8,24.8,29.78,NW,307,0.0,0.0,85,0.00,,,0.00,meteohub,2013-03-14 01:44:00,
2013-03-13 21:50:00,28.8,25.2,29.78,NW,313,0.0,0.0,86,0.00,,,0.00,meteohub,2013-03-14 01:50:00,
2013-03-13 21:55:00,28.9,25.3,29.78,NW,313,0.0,2.0,86,0.00,,,0.00,meteohub,2013-03-14 01:55:00,
2013-03-13 22:00:00,29.1,25.5,29.78,NW,313,0.0,2.0,86,0.00,,,0.00,meteohub,2013-03-14 02:00:00,
2013-03-13 22:05:00,29.1,25.7,29.78,NW,313,0.0,0.0,87,0.00,,,0.00,meteohub,2013-03-14 02:05:00,
2013-03-13 22:10:00,29.5,26.1,29.78,NW,313,0.0,1.0,87,0.00,,,0.00,meteohub,2013-03-14 02:10:00,
2013-03-13 22:15:00,29.7,26.2,29.78,NW,313,0.0,1.0,87,0.00,,,0.00,meteohub,2013-03-14 02:15:00,
2013-03-13 22:21:00,29.7,26.1,29.78,NW,315,0.0,1.0,86,0.00,,,0.00,meteohub,2013-03-14 02:21:00,
2013-03-13 22:26:00,29.8,26.2,29.78,NW,315,0.0,1.0,86,0.00,,,0.00,meteohub,2013-03-14 02:26:00,
2013-03-13 22:31:00,29.8,26.2,29.78,NNW,330,0.0,1.0,86,0.00,,,0.00,meteohub,2013-03-14 02:31:00,
2013-03-13 22:36:00,30.0,26.4,29.77,NNW,330,0.0,1.0,86,0.00,,,0.00,meteohub,2013-03-14 02:36:00,
2013-03-13 22:41:00,30.0,26.6,29.77,NNW,330,0.0,1.0,87,0.00,,,0.00,meteohub,2013-03-14 02:41:00,
2013-03-13 22:46:00,30.0,26.6,29.77,NNW,330,0.0,0.0,87,0.00,,,0.00,meteohub,2013-03-14 02:46:00,
2013-03-13 22:52:00,30.0,26.6,29.78,NNW,330,0.0,0.0,87,0.00,,,0.00,meteohub,2013-03-14 02:52:00,
2013-03-13 22:57:00,30.2,26.8,29.77,SE,127,0.0,5.0,87,0.00,,,0.00,meteohub,2013-03-14 02:57:00,
2013-03-13 23:02:00,30.4,27.0,29.77,SE,127,0.0,5.0,87,0.00,,,0.00,meteohub,2013-03-14 03:02:00,
2013-03-13 23:07:00,30.4,27.0,29.77,SE,126,2.0,5.0,87,0.00,,,0.00,meteohub,2013-03-14 03:07:00,
2013-03-13 23:12:00,30.6,27.0,29.77,SE,135,0.0,3.0,86,0.00,,,0.00,meteohub,2013-03-14 03:12:00,
2013-03-13 23:18:00,30.6,27.1,29.77,SE,135,0.0,3.0,87,0.00,,,0.00,meteohub,2013-03-14 03:18:00,
2013-03-13 23:23:00,30.6,27.0,29.77,SE,135,0.0,3.0,86,0.00,,,0.00,meteohub,2013-03-14 03:23:00,
2013-03-13 23:28:00,30.6,27.0,29.76,SE,135,0.0,2.0,86,0.00,,,0.00,meteohub,2013-03-14 03:28:00,
2013-03-13 23:33:00,30.6,27.0,29.77,SE,135,0.0,2.0,86,0.00,,,0.00,meteohub,2013-03-14 03:33:00,
2013-03-13 23:38:00,30.6,27.1,29.77,ESE,120,0.0,1.0,87,0.00,,,0.00,meteohub,2013-03-14 03:38:00,
2013-03-13 23:43:00,30.4,27.0,29.76,East,98,0.0,1.0,87,0.00,,,0.00,meteohub,2013-03-14 03:43:00,
2013-03-13 23:48:00,30.6,27.0,29.76,WSW,257,0.0,2.0,86,0.00,,,0.00,meteohub,2013-03-14 03:48:00,
2013-03-13 23:53:00,30.9,27.1,29.76,NW,322,3.0,5.0,86,0.00,,,0.00,meteohub,2013-03-14 03:53:00,
2013-03-13 23:58:00,31.3,26.1,29.76,NW,321,0.0,5.0,81,0.00,,,0.00,meteohub,2013-03-14 03:58:00,